This is the latest recevied weather packets stored in our database for station/object SQ9PDE-13. If no packets are shown the sender has not sent any weather packets the latest 10 day(s).
| Time | Temp. | Humidity | Pressure | Rain* | Wind** | Luminosity | Snow |
|---|---|---|---|---|---|---|---|
| 1777967380 | 25.56° C | 40% | 1009.4 hPa | - | - | - | - |
| 1777967079 | 25° C | 41% | 1009.6 hPa | - | - | - | - |
| 1777966779 | 24.44° C | 43% | 1009.8 hPa | - | - | - | - |
| 1777966478 | 25° C | 43% | 1009.8 hPa | - | - | - | - |
| 1777966178 | 26.11° C | 42% | 1009.5 hPa | - | - | - | - |
| 1777965877 | 24.44° C | 43% | 1009.7 hPa | - | - | - | - |
| 1777965577 | 25.56° C | 42% | 1009.9 hPa | - | - | - | - |
| 1777965276 | 25.56° C | 42% | 1010 hPa | - | - | - | - |
| 1777964976 | 24.44° C | 43% | 1010.2 hPa | - | - | - | - |
| 1777964728 | 22.78° C | 44% | 1010.3 hPa | - | - | - | - |
| 1777964684 | 22.78° C | 44% | 1401 hPa | - | - | - | - |
| 1777964675 | 22.78° C | 44% | 1010.3 hPa | - | - | - | - |
| 1777964375 | 24.44° C | 44% | 1010.3 hPa | - | - | - | - |
| 1777964074 | 23.33° C | 44% | 1010.6 hPa | - | - | - | - |
| 1777963774 | 23.89° C | 43% | 1010.5 hPa | - | - | - | - |
| 1777963473 | 23.33° C | 44% | 1010.6 hPa | - | - | - | - |
| 1777963216 | 22.78° C | 42% | 1010.3 hPa | - | - | - | - |
| 1777963180 | 22.78° C | 42% | 1010.3 hPa | - | - | - | - |
| 1777963173 | 22.78° C | 42% | 1010.3 hPa | - | - | - | - |
| 1777962872 | 23.33° C | 43% | 1010.7 hPa | - | - | - | - |
| 1777962608 | 22.78° C | 43% | 1010.7 hPa | - | - | - | - |
| 1777962572 | 22.78° C | 43% | 1010.7 hPa | - | - | - | - |
| 1777962271 | 22.22° C | 44% | 1010.6 hPa | - | - | - | - |
| 1777961670 | 21.67° C | 45% | 1010.7 hPa | - | - | - | - |
| 1777961370 | 22.22° C | 45% | 1010.8 hPa | - | - | - | - |
* Rain since midnight (hover to see other rain measurements)
** Current wind speed in m/s (hover to see current wind gust speed)